Location: Auckland
(36.8670°S, 174.7670°E)
Time: 22:47:19
(UTC+12:00)

Cosmos 1707 Rocket - Pass Details

Date: 24 January 2019
Orbit: 606 x 631 km, 82.5° (Epoch: 22 April)

Event Time Altitude Azimuth Distance (km) Brightness Sun altitude
Exits shadow 22:55:27 65° 96° (E) 677 3.5 -22.7°
Drops below altitude 10° 22:59:42 10° 167° (SSE) 1,989 6.6 -23.3°
Sets 23:01:57 0° 169° (S) 2,904 7.6 -23.6°
